Tracking 19245 objects as of 14-Aug-2018
HD Live streaming from Space Station
objects crossing your sky now

ERS 15

Track ERS 15 now!
10-day predictions
ERS 15 is classified as:


NORAD ID: 2412
Int'l Code: 1966-077C
Perigee: 3,684.5 km
Apogee: 3,714.4 km
Inclination: 90.2 °
Period: 167.6 minutes
Semi major axis: 10070 km
RCS: 0.3509 m2 (medium)
Launch date: August 19, 1966
Source: United States (US)
Launch site: AIR FORCE WESTERN TEST RANGE (AFWTR)
aabbcc
Your satellite tracking list
Your tracking list is empty




NASA's NSSDC Master Catalog

Two Line Element Set (TLE):
1  2412U 66077C   18223.05970475 +.00000002 +00000-0 +00000-0 0  9990
2  2412 090.2041 248.0090 0014820 056.4878 303.7387 08.59070361628313
Source of the keplerian elements: AFSPC